This is the latest recevied weather packets stored in our database for station/object EUGENE. If no packets are shown the sender has not sent any weather packets the latest 10 day(s).
| Time | Temp. | Humidity | Pressure | Rain* | Wind** | Luminosity | Snow |
|---|---|---|---|---|---|---|---|
| 1777628524 | 11.11° C | 85% | 1016.5 hPa | 0 mm | - | - | - |
| 1777627624 | 11.11° C | 84% | 1016.4 hPa | 0 mm | - | - | - |
| 1777626724 | 11.67° C | 83% | 1016.3 hPa | 0 mm | - | - | - |
| 1777625824 | 11.67° C | 83% | 1016.4 hPa | 0 mm | - | - | - |
| 1777624924 | 12.22° C | 83% | 1016.4 hPa | 0 mm | - | - | - |
| 1777624025 | 11.67° C | 83% | 1016.4 hPa | 0 mm | - | - | - |
| 1777623124 | 12.22° C | 83% | 1016.3 hPa | 0 mm | - | - | - |
| 1777622224 | 12.22° C | 82% | 1016.2 hPa | 0 mm | - | - | - |
| 1777621324 | 12.78° C | 82% | 1016.2 hPa | 0 mm | - | - | - |
| 1777620425 | 12.78° C | 82% | 1016.1 hPa | 0 mm | - | - | - |
| 1777619524 | 12.78° C | 81% | 1016.1 hPa | 0 mm | - | - | - |
| 1777618625 | 13.33° C | 81% | 1015.9 hPa | 0 mm | - | - | - |
| 1777617724 | 13.33° C | 81% | 1015.7 hPa | 0 mm | - | - | - |
| 1777616824 | 13.33° C | 81% | 1015.6 hPa | 0 mm | - | - | - |
| 1777615924 | 13.89° C | 80% | 1015.5 hPa | 0 mm | - | - | - |
| 1777615024 | 14.44° C | 79% | 1015.6 hPa | 0 mm | - | - | - |
| 1777614124 | 14.44° C | 77% | 1015.5 hPa | 0 mm | - | - | - |
| 1777613224 | 15° C | 76% | 1015.7 hPa | 0 mm | - | - | - |
| 1777612324 | 15.56° C | 76% | 1015.7 hPa | 0 mm | - | - | - |
| 1777611424 | 15.56° C | 75% | 1015.5 hPa | 0 mm | - | - | - |
| 1777610524 | 15.56° C | 74% | 1015.4 hPa | 0 mm | - | - | - |
| 1777609624 | 16.11° C | 73% | 1015.2 hPa | 0 mm | - | - | - |
| 1777608724 | 16.67° C | 73% | 1014.9 hPa | 0 mm | - | - | - |
| 1777607824 | 17.22° C | 74% | 1014.8 hPa | 0 mm | - | - | - |
| 1777606924 | 17.78° C | 73% | 1014.6 hPa | 0 mm | - | - | - |
* Rain latest hour (hover to see other rain measurements)
** Current wind speed in m/s (hover to see current wind gust speed)